• En Colombia
  • Lista de países
  • Para 7 días
  • Temperatura del agua
  • El tiempo en el mapa
  • Informadores
  • user-avatar
    Iniciar sesión

    Tiempo cada hora Biskira

    Hoy, 20 Enero, Lunes

    Tiempo Temperatura Precipitaciones Viento Presión Humedad
    00:00 +10°C° 0 mm 5 mps 754 mmHg 53%
    01:00 +9°C° 0 mm 6 mps 754 mmHg 56%
    02:00 +9°C° 0 mm 6 mps 753 mmHg 58%
    03:00 +9°C° 0 mm 7 mps 753 mmHg 61%
    04:00 +9°C° 0 mm 6 mps 753 mmHg 63%
    05:00 +9°C° 0 mm 5 mps 753 mmHg 65%
    06:00 +8°C° 0 mm 4 mps 753 mmHg 67%
    07:00 +11°C° 0 mm 4 mps 753 mmHg 60%
    08:00 +12°C° 0 mm 5 mps 753 mmHg 53%
    09:00 +13°C° 0 mm 6 mps 753 mmHg 46%
    10:00 +14°C° 0 mm 7 mps 753 mmHg 42%
    11:00 +16°C° 0 mm 8 mps 752 mmHg 37%
    12:00 +17°C° 0 mm 10 mps 752 mmHg 32%
    13:00 +17°C° 0 mm 10 mps 752 mmHg 31%
    14:00 +18°C° 0 mm 11 mps 751 mmHg 31%
    15:00 +18°C° 0 mm 12 mps 750 mmHg 30%
    16:00 +17°C° 0 mm 11 mps 751 mmHg 32%
    17:00 +16°C° 0 mm 11 mps 751 mmHg 34%
    18:00 +14°C° 0 mm 10 mps 751 mmHg 37%
    19:00 +14°C° 0 mm 11 mps 752 mmHg 37%
    20:00 +14°C° 0 mm 12 mps 752 mmHg 38%
    21:00 +14°C° 0 mm 12 mps 752 mmHg 38%
    22:00 +14°C° 0 mm 12 mps 752 mmHg 39%
    23:00 +14°C° 0 mm 12 mps 751 mmHg 39%

    Mañana, 21 Enero, Martes

    Tiempo Temperatura Precipitaciones Viento Presión Humedad
    00:00 +14°C° 0 mm 12 mps 751 mmHg 39%
    01:00 +14°C° 0 mm 13 mps 751 mmHg 40%
    02:00 +13°C° 0 mm 14 mps 751 mmHg 40%
    03:00 +13°C° 0 mm 14 mps 750 mmHg 41%
    04:00 +13°C° 0 mm 14 mps 750 mmHg 41%
    05:00 +12°C° 0 mm 13 mps 751 mmHg 42%
    06:00 +12°C° 0 mm 12 mps 751 mmHg 42%
    07:00 +12°C° 0 mm 13 mps 751 mmHg 41%
    08:00 +13°C° 0 mm 14 mps 752 mmHg 41%
    09:00 +13°C° 0 mm 15 mps 752 mmHg 40%
    10:00 +14°C° 0 mm 15 mps 752 mmHg 38%
    11:00 +15°C° 0 mm 14 mps 752 mmHg 35%
    12:00 +17°C° 0 mm 14 mps 752 mmHg 33%
    13:00 +17°C° 0 mm 13 mps 752 mmHg 31%
    14:00 +18°C° 0 mm 12 mps 752 mmHg 28%
    15:00 +18°C° 0 mm 12 mps 752 mmHg 26%
    16:00 +18°C° 0 mm 11 mps 752 mmHg 28%
    17:00 +17°C° 0 mm 11 mps 752 mmHg 30%
    18:00 +16°C° 0 mm 10 mps 753 mmHg 32%
    19:00 +16°C° 0 mm 11 mps 753 mmHg 34%
    20:00 +16°C° 0 mm 11 mps 753 mmHg 36%
    21:00 +16°C° 0 mm 11 mps 754 mmHg 38%
    22:00 +14°C° 0 mm 10 mps 754 mmHg 39%
    23:00 +14°C° 0 mm 10 mps 754 mmHg 41%

    Pasado mañana, 22 Enero, Miércoles

    Tiempo Temperatura Precipitaciones Viento Presión Humedad
    00:00 +15°C° 0 mm 9 mps 754 mmHg 42%
    01:00 +14°C° 0 mm 10 mps 754 mmHg 43%
    02:00 +14°C° 0 mm 10 mps 754 mmHg 43%
    03:00 +13°C° 0 mm 10 mps 755 mmHg 43%
    04:00 +13°C° 0 mm 10 mps 755 mmHg 44%
    05:00 +13°C° 0 mm 10 mps 755 mmHg 44%
    06:00 +13°C° 0 mm 10 mps 755 mmHg 44%
    07:00 +13°C° 0 mm 11 mps 755 mmHg 42%
    08:00 +14°C° 0 mm 12 mps 756 mmHg 40%
    09:00 +15°C° 0 mm 12 mps 756 mmHg 38%
    10:00 +17°C° 0 mm 12 mps 755 mmHg 37%
    11:00 +18°C° 0 mm 13 mps 755 mmHg 36%
    12:00 +18°C° 0 mm 13 mps 754 mmHg 35%
    13:00 +19°C° 0 mm 13 mps 754 mmHg 35%
    14:00 +19°C° 0 mm 13 mps 754 mmHg 35%
    15:00 +19°C° 0 mm 13 mps 753 mmHg 35%
    16:00 +18°C° 0 mm 12 mps 754 mmHg 38%
    17:00 +17°C° 0 mm 11 mps 754 mmHg 40%
    18:00 +17°C° 0 mm 9 mps 754 mmHg 43%
    19:00 +17°C° 0 mm 10 mps 754 mmHg 44%
    20:00 +17°C° 0 mm 10 mps 755 mmHg 44%
    21:00 +17°C° 0 mm 10 mps 755 mmHg 44%
    22:00 +16°C° 0 mm 10 mps 755 mmHg 44%
    23:00 +16°C° 0 mm 9 mps 755 mmHg 44%

    23 Enero, Jueves

    Tiempo Temperatura Precipitaciones Viento Presión Humedad
    00:00 +16°C° 0 mm 8 mps 755 mmHg 44%
    01:00 +15°C° 0 mm 7 mps 755 mmHg 45%
    02:00 +15°C° 0 mm 6 mps 755 mmHg 47%
    03:00 +14°C° 0 mm 5 mps 755 mmHg 49%
    04:00 +14°C° 0 mm 5 mps 755 mmHg 49%
    05:00 +14°C° 0 mm 5 mps 755 mmHg 49%
    06:00 +14°C° 0 mm 5 mps 755 mmHg 49%
    07:00 +14°C° 0 mm 6 mps 756 mmHg 47%
    08:00 +15°C° 0 mm 7 mps 756 mmHg 44%
    09:00 +16°C° 0 mm 7 mps 756 mmHg 41%
    10:00 +17°C° 0 mm 7 mps 756 mmHg 38%
    11:00 +18°C° 0 mm 7 mps 756 mmHg 36%
    12:00 +20°C° 0 mm 7 mps 756 mmHg 34%
    13:00 +20°C° 0 mm 7 mps 755 mmHg 34%
    14:00 +20°C° 0 mm 6 mps 755 mmHg 33%
    15:00 +20°C° 0 mm 6 mps 755 mmHg 33%
    16:00 +19°C° 0 mm 5 mps 755 mmHg 36%
    17:00 +18°C° 0 mm 4 mps 755 mmHg 38%
    18:00 +15°C° 0 mm 4 mps 756 mmHg 41%
    19:00 +16°C° 0 mm 3 mps 756 mmHg 42%
    20:00 +16°C° 0 mm 3 mps 756 mmHg 43%
    21:00 +15°C° 0 mm 2 mps 757 mmHg 44%
    22:00 +14°C° 0 mm 2 mps 757 mmHg 46%
    23:00 +14°C° 0 mm 1 mps 757 mmHg 47%

    24 Enero, Viernes

    Tiempo Temperatura Precipitaciones Viento Presión Humedad
    00:00 +13°C° 0 mm 1 mps 757 mmHg 49%
    01:00 +13°C° 0 mm 1 mps 757 mmHg 50%
    02:00 +12°C° 0 mm 1 mps 757 mmHg 51%
    03:00 +12°C° 0 mm 1 mps 757 mmHg 52%
    04:00 +10°C° 0 mm 0 mps 757 mmHg 53%
    05:00 +10°C° 0 mm 0 mps 757 mmHg 53%
    06:00 +10°C° 0 mm 0 mps 757 mmHg 54%
    07:00 +11°C° 0 mm 0 mps 758 mmHg 48%
    08:00 +13°C° 0 mm 0 mps 758 mmHg 43%
    09:00 +15°C° 0 mm 0 mps 758 mmHg 37%
    10:00 +16°C° 0 mm 0 mps 758 mmHg 35%
    11:00 +17°C° 0 mm 0 mps 758 mmHg 33%
    12:00 +19°C° 0 mm 1 mps 758 mmHg 31%
    13:00 +20°C° 0 mm 1 mps 757 mmHg 30%
    14:00 +20°C° 0 mm 1 mps 757 mmHg 28%
    15:00 +20°C° 0 mm 1 mps 757 mmHg 27%
    16:00 +17°C° 0 mm 0 mps 757 mmHg 31%
    17:00 +16°C° 0 mm 0 mps 757 mmHg 34%
    18:00 +15°C° 0 mm 0 mps 757 mmHg 38%
    19:00 +14°C° 0 mm 0 mps 757 mmHg 38%
    20:00 +14°C° 0 mm 0 mps 758 mmHg 38%
    21:00 +15°C° 0 mm 1 mps 758 mmHg 39%
    22:00 +13°C° 0 mm 0 mps 758 mmHg 39%
    23:00 +13°C° 0 mm 0 mps 757 mmHg 39%

    25 Enero, Sábado

    Tiempo Temperatura Precipitaciones Viento Presión Humedad
    00:00 +13°C° 0 mm 0 mps 757 mmHg 39%
    01:00 +13°C° 0 mm 0 mps 757 mmHg 39%
    02:00 +12°C° 0 mm 0 mps 757 mmHg 38%
    03:00 +13°C° 0 mm 1 mps 756 mmHg 38%
    04:00 +13°C° 0 mm 1 mps 756 mmHg 38%
    05:00 +13°C° 0 mm 1 mps 756 mmHg 39%
    06:00 +12°C° 0 mm 1 mps 756 mmHg 39%
    07:00 +14°C° 0 mm 1 mps 756 mmHg 36%
    08:00 +16°C° 0 mm 1 mps 756 mmHg 32%
    09:00 +17°C° 0 mm 0 mps 757 mmHg 29%
    10:00 +20°C° 0 mm 1 mps 756 mmHg 27%
    11:00 +20°C° 0 mm 2 mps 756 mmHg 25%
    12:00 +21°C° 0 mm 2 mps 755 mmHg 23%
    13:00 +20°C° 0 mm 3 mps 755 mmHg 24%
    14:00 +20°C° 0 mm 3 mps 755 mmHg 24%
    15:00 +20°C° 0 mm 3 mps 755 mmHg 25%
    16:00 +19°C° 0 mm 4 mps 755 mmHg 33%
    17:00 +18°C° 0 mm 4 mps 755 mmHg 41%
    18:00 +16°C° 0 mm 5 mps 755 mmHg 49%
    19:00 +16°C° 0.1 mm 5 mps 755 mmHg 51%
    20:00 +16°C° 0.1 mm 5 mps 755 mmHg 53%
    21:00 +16°C° 0.1 mm 5 mps 756 mmHg 55%
    22:00 +15°C° 1.6 mm 5 mps 756 mmHg 64%
    23:00 +14°C° 1.6 mm 4 mps 755 mmHg 73%
    Mostrar más